星链-32909 (STARLINK-32909)

导读 | 豆包AI

STARLINK-32909是美国星链星座中的一颗卫星,于2025年2月4日8点发射,归属美国太空探索技术公司Starlink项目。星链项目旨在构建全球卫星互联网星座,为全球范围提供低成本、低延迟的宽带网络服务,该卫星进一步扩充了星链星座的在轨规模,完善星座全球覆盖能力。

Basic Information
目录编号:
62894
目录名称:
STARLINK-32909
国际标识:
2025-024R
轨道中心:
EARTH
卫星名称:
星链-32909
卫星全名:
星链-32909 (STARLINK-32909)
卫星状态:
在轨 (已飞行449 天)
发射日期:
2025-02-04 UTC
国别 :
美国 (US)
星等 :
--
Orbit Information
数据来源 国际轨道数据 AOE轨道数据
星历时间 2026-04-29T20:00:02+0800
11小时前
查看轨道信息
2026-04-23T17:00:00+0800
6天前
查看轨道信息
半长轴 6861.172km 6861.195km
偏心率 0.0001238 0.000131
轨道倾角 43.004° 43.001°
近地点辐角 256.018° 294.279°
升交点赤经 38.677° 73.274°
平近点角 104.053° 183.074°
近地点 482.185km 482.159km
远地点 483.885km 483.957km
周期 94.266分钟 94.267分钟
每日圈数 15.275849 15.275771
Detailed Information
固有亮度:
5
最大亮度:
2.5
卫星平台:
Starlink V1.0
覆盖范围:
全球
运营商:
太空探索技术公司
运营商所在国:
美国
制造商(研发单位):
太空探索技术公司
制造商所在国:
美国
使用方式:
暂无
Satellite Introduction
Starlink 计划是 SpaceX 推出的全球卫星互联网项目,通过发射低轨道卫星,为全球尤其是偏远地区提供高速、低延迟的互联网服务。自 2019 年起,Starlink 已部署数千颗卫星,旨在缩小全球数字鸿沟,推动互联网普及。该项目还为军事、航空等行业提供通信支持,带来广泛经济效益。
2D Orbit Map
3D Orbit Map
Orbit Altitude Analysis Chart
Orbit Inclination Analysis Chart
Orbit Comprehensive Analysis Chart
View Comprehensive Chart